Location: Gülübeli Geçidi
(36.8411°N, 29.7411°E)
Time: 08:04:23
(UTC+00:00)

BREEZE-M DEB (TANK) - Pass Details

Date: 15 May 2026
Orbit: 302 x 13228 km, 49.5° (Epoch: 2 June)

Event Time Altitude Azimuth Distance (km) Brightness Sun altitude
Rises 22:12:06 0° 302° (WNW) 11,078 9.7 -34.0°
Reaches altitude 10° 22:23:23 10° 304° (NW) 7,662 8.8 -33.8°
Maximum altitude 22:41:07 79° 32° (NNE) 1,279 4.5 -33.2°
Enters shadow 22:41:40 74° 82° (E) 1,221 4.4 -33.1°
